#timestamp,LO_Frequency,Hit,StdDev 
1681714815.1,286047002.6,N
1681714835.9,286047001.0,N
1681714855.7,286047002.3,N
1681714875.5,286046999.8,N
1681714895.4,286047000.9,N
1681714915.2,286047000.7,N
1681714935.0,286046998.5,N
1681714935.9,286046998.5,N
1681714955.8,286047000.7,N
1681714975.6,286047000.3,N
1681714995.5,286047002.7,N
1681715015.3,286047000.5,N
1681715035.1,286047001.1,N
1681715055.9,286046998.6,N
1681715075.7,286046999.6,N
1681715095.5,286046996.8,N
1681715115.4,286046997.7,N
1681715135.2,286046997.9,N
1681715155.1,286046997.1,N
1681715156.0,286046997.1,N
1681715175.8,286046997.8,N
1681715195.6,286046999.2,N
1681715215.5,286046996.8,N
1681715235.3,286046996.7,N
1681715255.2,286046999.3,N
1681715275.9,286046997.1,N
1681715295.7,286046999.5,N
1681715315.6,286046999.3,N
1681715335.4,286047000.6,N
1681715355.2,286046998.2,N
1681715375.1,286047001.0,N
1681715376.0,286047001.0,N
1681715395.8,286046998.9,N
1681715415.7,286046998.1,N
1681715435.5,286046998.9,N
1681715455.3,286047000.8,N
1681715475.2,286047000.0,N
1681715495.0,286047000.6,N
1681715495.9,286047000.6,N
1681715515.7,286047002.5,N
1681715535.6,286047001.1,N
1681715555.4,286047000.0,N
1681715575.3,286047002.7,N
1681715595.1,286047001.8,N
1681715596.0,286047001.8,N
1681715615.8,286047001.4,N
1681715635.7,286047003.5,N
1681715655.5,286047005.8,Y
1681715675.3,286047006.0,P
1681715695.2,286047002.9,N
1681715715.0,286047005.8,N
1681715715.9,286047005.8,N
1681715735.8,286047004.7,N
1681715755.6,286047003.1,N
1681715775.4,286047004.1,N
1681715795.3,286047003.4,N
1681715815.1,286047003.1,N
1681715835.9,286047005.8,Y
1681715855.7,286047002.5,P
1681715875.5,286046999.8,N
1681715895.4,286047000.0,N
1681715915.2,286046998.6,N
1681715935.0,286046996.9,N
1681715935.9,286046996.9,N
1681715955.8,286046995.6,N
1681715975.6,286046994.1,N
1681715995.5,286046991.9,N
1681716015.3,286046993.1,N
1681716035.1,286046992.9,N
1681716055.9,286046993.1,N
1681716075.7,286046989.0,N
1681716095.5,286046990.5,N
1681716115.4,286046992.6,N
1681716135.2,286046992.7,N
1681716155.1,286046994.1,N
1681716156.0,286046994.1,N
1681716175.8,286046994.8,N
1681716195.6,286046992.7,N
1681716215.5,286046990.9,N
1681716235.3,286046989.5,N
1681716255.2,286046987.3,Y
1681716275.9,286046993.1,P
1681716295.7,286046994.8,P
1681716315.6,286046994.8,P
1681716335.4,286046994.3,Y
1681716355.2,286046998.9,P
1681716375.1,286046997.0,N
1681716376.0,286046997.0,N
1681716395.8,286046997.0,N
1681716415.7,286047000.7,N
1681716435.5,286046999.3,N
1681716455.3,286046998.4,N
1681716475.2,286046999.3,N
1681716495.9,286046999.2,N
1681716515.7,286046996.6,N
1681716535.6,286046997.1,N
1681716555.4,286046999.2,N
1681716575.2,286046997.0,N
1681716595.1,286046998.3,N
1681716596.0,286046998.3,N
1681716615.8,286046996.7,N
1681716635.7,286046997.1,N
1681716655.5,286046997.6,N
1681716675.3,286046996.7,N
1681716695.2,286046996.6,N
1681716715.0,286046996.1,N
1681716715.9,286046996.1,N
1681716735.7,286046995.8,Y
1681716755.6,286046996.5,P
1681716775.4,286046997.7,P
1681716795.3,286046996.5,P
1681716815.1,286046998.9,N
1681716816.0,286046998.9,N
1681716865.9,286047001.0,E
1681716875.8,286047000.0,N
1681716895.6,286047000.2,P
1681716915.5,286047000.7,P
1681716935.3,286046998.2,Y
1681716955.1,286046999.4,P
1681716975.9,286046998.9,N
1681716995.7,286047001.1,N
1681717015.5,286047000.0,N
1681717035.4,286047001.2,N
1681717055.2,286046998.9,N
1681717105.1,286046999.4,E
1681717115.0,286046998.8,N
1681717115.9,286046998.8,P
1681717135.7,286046999.9,P
1681717155.6,286047000.9,N
1681717175.4,286047000.2,N
1681717195.3,286046998.6,N
1681717215.1,286046998.2,N
1681717216.0,286046998.2,N
1681717235.8,286046998.5,N
1681717255.7,286046999.1,N
1681717275.5,286046996.7,Y
1681717295.3,286047000.8,P
1681717315.2,286046998.6,N
1681717335.0,286046998.2,N
1681717335.9,286046998.2,N
1681717355.8,286047000.8,N
1681717375.6,286046999.9,N
1681717395.4,286047000.0,N
1681717415.3,286047002.6,N
1681717435.1,286046999.9,N
1681717455.9,286047001.4,N
1681717475.7,286047003.0,N
1681717495.5,286047007.6,Y
1681717515.4,286047006.7,P
1681717535.2,286047008.4,N
1681717555.0,286047008.8,N
1681717555.9,286047008.8,N
1681717575.8,286047009.2,N
1681717595.6,286047009.2,N
1681717615.5,286047008.9,N
1681717635.3,286047006.3,N
1681717655.1,286047006.7,N
1681717675.9,286047005.6,N
1681717695.7,286047004.8,N
1681717715.5,286047006.7,N
1681717735.4,286047006.8,N
1681717755.2,286047006.9,N
1681717775.0,286047004.9,N
1681717776.0,286047004.9,N
1681717795.8,286047006.0,N
1681717815.6,286047005.2,N
1681717835.5,286047008.8,Y
1681717855.3,286047004.3,P
1681717875.1,286047000.0,N
1681717895.9,286047001.2,N
1681717915.7,286047002.8,N
1681717935.5,286047000.5,N
1681717955.4,286047001.6,N
1681717975.2,286047003.0,N
1681717995.1,286047005.7,N
1681717996.0,286047005.7,N
1681718015.8,286047006.0,N
1681718035.6,286047003.9,N
1681718055.5,286047003.8,N
1681718075.3,286047001.5,N
1681718095.1,286047002.2,N
1681718115.9,286047001.6,N
1681718135.7,286047004.4,N
1681718155.6,286047002.0,N
1681718175.4,286047002.3,N
1681718195.2,286047003.6,N
1681718215.1,286047003.3,N
1681718216.0,286047003.3,N
1681718235.8,286047004.2,N
1681718255.7,286047005.7,Y
1681718275.5,286047002.2,P
1681718295.3,286046998.5,P
1681718315.2,286047001.1,N
1681718335.9,286046999.5,N
1681718355.7,286046996.5,N
1681718375.6,286046998.5,N
1681718395.4,286046998.8,N
